Regional Weather Roundup
Issued by NWS

Home | Current Version | Previous Version | Text Only | Print | Product List | Glossary On
Versions: 1 2 3 4 5 6 7 8 9 10 11 12 13 14 15 16 17 18 19 20 21 22 23 24 25 26 27 28 29 30 31 32 33 34 35 36 37 38 39 40 41 42 43 44 45 46 47 48 49 50
000
ASUS43 KLSX 222059
RWRMO

WEATHER SUMMARY FOR MISSOURI
NATIONAL WEATHER SERVICE SPRINGFIELD MO
300 PM CST MON DEC 22 2014

NOTE: "FAIR" INDICATES FEW OR NO CLOUDS BELOW 12,000 FEET WITH NO
       SIGNIFICANT WEATHER AND/OR OBSTRUCTIONS TO VISIBILITY.
       CURRENT SKY AND/OR WEATHER CONDITIONS ARE NOT AVAILABLE FOR
       CHILLICOTHE AND FARMINGTON.

MOZ001>031-035>038-043-044-053-054-222200-
...NORTHERN AND WESTERN MISSOURI...

CITY           SKY/WX    TMP DP  RH WIND       PRES   REMARKS
KANSAS CTY INT DRIZZLE   45  44  97 S8        29.42F FOG
KANSAS C DTWN  CLOUDY    47  44  90 S6        29.43F FOG
LEE`S SUMMIT   LGT RAIN  45  44  97 S6        29.44F FOG
ST JOSEPH      CLOUDY    45  44  97 S8        29.42S FOG
CHILLICOTHE      N/A     44  42  93 SE3       29.47F
KIRKSVILLE     LGT RAIN  42  42 100 SE8       29.49F FOG

$$
MOZ066>068-077>081-088>096-101>105-222200-
...SOUTHWEST MISSOURI...

CITY           SKY/WX    TMP DP  RH WIND       PRES   REMARKS
SPRINGFIELD    CLOUDY    48  46  93 S9        29.48F FOG
JOPLIN         LGT RAIN  49  48  97 SW12      29.49S FOG

$$
MOZ032>034-039>042-045>050-055>058-069>072-222200-
...CENTRAL MISSOURI...

CITY           SKY/WX    TMP DP  RH WIND       PRES   REMARKS
COLUMBIA       LGT RAIN  47  46  97 SE9       29.48F FOG
JEFFERSON CITY CLOUDY    49  46  90 SE7       29.50F
ROLLA          CLOUDY    47  44  90 S7        29.50F
SEDALIA        CLOUDY    47  46  97 S8        29.47F FOG
WARRENSBURG    RAIN      45  43  93 S6        29.45F
OSAGE BEACH    CLOUDY    48  45  87 S7        29.50R

$$
MOZ051-052-059>065-222200-
...EAST CENTRAL MISSOURI...

CITY           SKY/WX    TMP DP  RH WIND       PRES   REMARKS
ST LOUIS INTL  LGT RAIN  49  46  90 SE10      29.56F FOG
SPIRIT OF STL  LGT RAIN  47  45  93 E3        29.55F
ST CHARLES     LGT RAIN  47  46  97 E5        29.56F FOG

$$
MOZ072>076-082>087-097>100-106>115-222200-
...SOUTH CENTRAL AND SOUTHEAST MISSOURI...

CITY           SKY/WX    TMP DP  RH WIND       PRES   REMARKS
CAPE GIRARDEAU LGT RAIN  51  50  96 SE12      29.60F FOG
FARMINGTON     CLOUDY    48  46  93 SE9       29.57F
POPLAR BLUFF   CLOUDY    52  49  89 S8        29.58S
WEST PLAINS    LGT RAIN  49  46  90 S12       29.53F FOG

$$


USA.gov is the U.S. government's official web portal to all federal, state and local government web resources and services.